Location: Córrego Montividiu
(13.2496°S, 48.8603°W)
Time: 12:14:14
(UTC+00:00)

Meteor 1-14 Rocket - Pass Details

Date: 11 March 2026
Orbit: 833 x 917 km, 81.3° (Epoch: 21 April)

Event Time Altitude Azimuth Distance (km) Brightness Sun altitude
Rises 22:48:51 0° 176° (S) 3,391 7.4 -19.4°
Reaches altitude 10° 22:51:21 10° 170° (S) 2,454 6.6 -20.0°
Maximum altitude 22:56:41 48° 96° (E) 1,085 4.3 -21.3°
Enters shadow 22:57:40 43° 65° (ENE) 1,159 4.4 -21.6°
